#timestamp,LO_Frequency,Hit,StdDev 
1600813935.5,286047025.4,P
1600813955.4,286047028.4,P
1600813975.2,286047027.7,P
1600813995.1,286047025.8,Y
1600813996.0,286047025.8,P
1600814015.8,286047001.2,N
1600814035.6,286047000.4,N
1600814055.5,286046998.2,N
1600814075.3,286047000.6,N
1600814095.1,286047001.6,N
1600814115.9,286047003.9,N
1600814135.7,286047001.8,N
1600814155.6,286047000.8,N
1600814175.4,286047002.5,N
1600814195.2,286046999.8,N
1600814215.1,286046998.2,N
1600814216.0,286046998.2,N
1600814235.8,286047002.5,N
1600814255.6,286047002.8,N
1600814275.5,286047002.3,N
1600814295.3,286047003.1,N
1600814315.2,286047004.7,N
1600814335.9,286047005.5,N
1600814355.7,286047005.0,N
1600814375.6,286047004.5,N
1600814395.4,286047005.2,N
1600814415.2,286047006.7,N
1600814435.1,286047007.5,N
1600814436.0,286047007.5,N
1600814455.8,286047005.3,N
1600814475.7,286047003.0,N
1600814495.5,286047002.9,N
1600814515.3,286047004.7,N
1600814535.2,286047005.7,N
1600814555.0,286047005.4,N
1600814555.9,286047005.4,N
1600814575.8,286047005.7,N
1600814595.6,286047004.5,N
1600814615.4,286047006.9,N
1600814635.3,286047007.4,Y
1600814655.1,286047004.3,P
1600814675.9,286047001.3,P
1600814695.7,286047003.4,N
1600814715.5,286047004.9,Y
1600814735.4,286047002.7,P
1600814755.2,286047002.8,P
1600814775.1,286047000.3,N
1600814776.0,286047000.3,N
1600814795.8,286047002.6,N
1600814815.6,286047011.9,Y
1600814835.5,286047000.2,P
1600814855.3,286047000.0,N
1600814875.2,286047000.4,N
1600814895.9,286047000.2,N
1600814915.7,286047000.9,N
1600814935.6,286047001.0,N
1600814955.4,286047000.5,N
1600814975.2,286047000.9,N
1600814995.1,286046998.1,Y
1600814996.0,286046998.1,P
1600815015.8,286046998.5,N
1600815035.7,286047000.0,N
1600815055.5,286047002.2,N
1600815075.3,286047002.8,N
1600815095.2,286047002.4,N
1600815115.0,286047001.3,N
1600815115.9,286047001.3,N
1600815135.8,286047004.3,N
1600815155.6,286047003.4,N
1600815175.4,286047003.6,N
1600815195.3,286047006.0,Y
1600815215.1,286047001.7,P
1600815235.8,286047003.8,P
1600815255.7,286047005.9,P
1600815275.5,286047004.7,N
1600815295.4,286047003.0,N
1600815315.2,286047005.1,Y
1600815335.0,286047002.2,P
1600815335.9,286047002.2,P
1600815355.8,286047002.5,P
1600815375.6,286047001.7,Y
1600815395.4,286047000.7,P
1600815415.3,286047000.6,N
1600815435.1,286047002.7,N
1600815455.9,286047002.7,N
1600815475.7,286047002.4,N
1600815495.5,286047004.4,Y
1600815515.4,286047002.8,P
1600815535.2,286047000.3,N
1600815555.1,286047002.8,N
1600815556.0,286047002.8,N
1600815575.8,286047001.9,N
1600815595.6,286046999.8,N
